Saint Charles, IL

12:36 AM CST on February 28, 2017 (GMT -0600)
Du Page

Weather History for KDPA - July, 2013

Change the Weather History Date:

Saturday, July 20, 2013

  Actual Average Record
Temperature  
Mean Temperature 77 °F 74 °F  
Max Temperature 87 °F 85 °F 97 °F (2011)
Min Temperature 67 °F 63 °F 54 °F (2009)
Degree Days  
Heating Degree Days 0 0  
Month to date heating degree days 5 0  
Since 1 June heating degree days 59 36  
Since 1 July heating degree days 5 0  
Cooling Degree Days 12 9  
Month to date cooling degree days 190 180  
Year to date cooling degree days 406 404  
Since 1 June cooling degree days 329 358  
Growing Degree Days 28 (Base 50)    
Moisture  
Dew Point 64 °F    
Average Humidity 72    
Maximum Humidity 93    
Minimum Humidity 41    
Precipitation  
Precipitation 0.74 in 0.16 in 1.21 in (2005)
Month to date precipitation 3.92 2.39  
Year to date precipitation 24.11 19.30  
Sea Level Pressure  
Sea Level Pressure 29.89 in    
Wind  
Wind Speed 5 mph (North)    
Max Wind Speed 29 mph    
Max Gust Speed 35 mph    
Visibility 8 miles    
Events Rain , Thunderstorm    
T = Trace of Precipitation, MM = Missing Value Source: NWS Daily Summary

Daily Weather History Graph

Daily Weather History Graph

Search for Another Location

Airport or City:

Trip Planner

Search our weather history database for the weather conditions in past years. The results will help you decide how hot, cold, wet, or windy it might be!

Date:

Astronomy

Jul. 20, 2013 Rise Set
Actual Time 5:35 AM CDT 8:22 PM CDT
Civil Twilight 5:02 AM CDT 8:55 PM CDT
Nautical Twilight 4:21 AM CDT 9:36 PM CDT
Astronomical Twilight 3:33 AM CDT 10:23 PM CDT
Moon 6:25 PM CDT (7/20) 3:15 AM CDT (7/20)
Length of Visible Light 15h 52m
Length of Day
14h 47m
Waxing Gibbous, 94% of the Moon is Illuminated
Jul 20
Waxing Gibbous
Jul 22
Full
Jul 29
Last Quarter
Aug 6
New
Aug 14
First Quarter

Hourly Weather History & Observations

Time (CDT) Temp. Heat Index Dew Point Humidity Pressure Visibility Wind Dir Wind Speed Gust Speed Precip Events Conditions
12:52 AM 73.0 °F - 70.0 °F 90% 29.81 in 10.0 mi West 4.6 mph - N/A   Mostly Cloudy
1:52 AM 72.0 °F - 69.1 °F 91% 29.81 in 10.0 mi Calm Calm - N/A   Partly Cloudy
2:52 AM 72.0 °F - 68.0 °F 87% 29.81 in 10.0 mi Calm Calm - N/A   Clear
3:52 AM 71.1 °F - 66.9 °F 87% 29.81 in 10.0 mi NNW 4.6 mph - N/A   Clear
4:52 AM 68.0 °F - 64.9 °F 90% 29.82 in 10.0 mi Calm Calm - N/A   Clear
5:52 AM 68.0 °F - 64.0 °F 87% 29.83 in 10.0 mi NNW 3.5 mph - N/A   Clear
6:52 AM 71.1 °F - 64.0 °F 78% 29.86 in 10.0 mi North 4.6 mph - N/A   Clear
7:52 AM 73.9 °F - 64.0 °F 71% 29.86 in 10.0 mi North 6.9 mph - N/A   Clear
8:52 AM 77.0 °F - 66.0 °F 69% 29.87 in 10.0 mi North 4.6 mph - N/A   Clear
9:52 AM 81.0 °F 83.0 °F 66.0 °F 60% 29.88 in 10.0 mi Variable 3.5 mph - N/A   Clear
10:52 AM 82.9 °F 84.0 °F 63.0 °F 51% 29.90 in 10.0 mi NNW 8.1 mph - N/A   Clear
11:52 AM 84.0 °F 84.0 °F 60.1 °F 44% 29.90 in 10.0 mi North 5.8 mph - N/A   Clear
12:52 PM 84.9 °F 85.0 °F 61.0 °F 44% 29.89 in 10.0 mi Calm Calm - N/A   Clear
1:52 PM 86.0 °F 86.3 °F 62.1 °F 44% 29.88 in 10.0 mi NNW 6.9 mph - N/A   Clear
2:52 PM 86.0 °F 85.7 °F 60.1 °F 41% 29.87 in 10.0 mi WNW 10.4 mph - N/A   Clear
3:52 PM 87.1 °F 87.0 °F 61.0 °F 41% 29.86 in 10.0 mi North 4.6 mph - N/A   Partly Cloudy
4:52 PM 86.0 °F 86.3 °F 62.1 °F 44% 29.85 in 10.0 mi NW 5.8 mph - N/A   Clear
5:52 PM 84.9 °F 85.4 °F 62.1 °F 46% 29.85 in 10.0 mi NW 8.1 mph - N/A   Partly Cloudy
6:52 PM 80.1 °F 81.7 °F 64.0 °F 58% 29.87 in 10.0 mi NNW 3.5 mph - N/A   Clear
7:52 PM 79.0 °F - 63.0 °F 58% 29.88 in 10.0 mi East 5.8 mph - N/A   Overcast
8:20 PM 77.0 °F - 69.8 °F 78% 29.91 in 10.0 mi ENE 11.5 mph - N/A Thunderstorm Overcast
8:41 PM 71.6 °F - 66.2 °F 83% 29.94 in 4.0 mi NNW 16.1 mph 28.8 mph 0.11 in Rain , Thunderstorm Thunderstorms and Rain
8:44 PM 69.8 °F - 66.2 °F 88% 29.94 in 1.8 mi NW 13.8 mph 28.8 mph 0.22 in Rain , Thunderstorm Thunderstorms and Rain
8:52 PM 68.0 °F - 64.9 °F 90% 29.94 in 0.8 mi NE 24.2 mph 34.5 mph 0.60 in Rain , Thunderstorm Heavy Thunderstorms and Rain
8:55 PM 68.0 °F - 64.4 °F 88% 29.96 in 1.0 mi NE 17.3 mph 34.5 mph 0.05 in Rain , Thunderstorm Heavy Thunderstorms and Rain
8:58 PM 68.0 °F - 64.4 °F 88% 29.96 in 1.0 mi NE 16.1 mph 34.5 mph 0.12 in Rain Heavy Rain
9:06 PM 68.0 °F - 62.6 °F 83% 29.96 in 3.0 mi East 15.0 mph - 0.14 in Rain Rain
9:11 PM 68.0 °F - 62.6 °F 83% 29.97 in 9.0 mi ESE 13.8 mph - 0.14 in Rain Light Rain
9:52 PM 68.0 °F - 63.0 °F 84% 29.95 in 10.0 mi Variable 5.8 mph - 0.14 in   Partly Cloudy
10:52 PM 68.0 °F - 64.9 °F 90% 29.93 in 10.0 mi WNW 4.6 mph - N/A   Mostly Cloudy
11:52 PM 68.0 °F - 66.0 °F 93% 29.94 in 10.0 mi NE 3.5 mph - 0.00 in   Overcast